Tracking 29495 objects as of 7-Sep-2024
HD Live streaming from Space Station
objects crossing your sky now

FENGYUN 1C DEB

Track FENGYUN 1C DEB now!
10-day predictions


NORAD ID: 37064
Int'l Code: 1999-025EEY
Perigee: 797.4 km
Apogee: 973.9 km
Inclination: 98.9 °
Period: 102.5 minutes
Semi major axis: 7256 km
RCS: 0.0093 m2 (small)
Launch date: May 10, 1999
Source: People's Republic of China (PRC)
Launch site: Taiyaun Space Center, China (TSC)

Note: This is SATELLITE DEBRIS
Your satellite tracking list
Your tracking list is empty




NASA's NSSDC Master Catalog

Two Line Element Set (TLE):
1 37064U 99025EEY 24251.17099891  .00016099  00000-0  94645-2 0  9998
2 37064  98.9252  40.4269 0121613 324.2067  35.0993 14.04439556765312
Source of the keplerian elements: AFSPC